Flugplatz Hundheim (UL)

Hier findest Du alle Informationen zum Flugplatz Hundheim (UL).

Informationen für Piloten zum Flugplatz Hundheim

Hier findest Du alle relevanten Informationen, die Du als Pilot benötigst, um Hundheim anzufliegen.

Flugplatz: Hundheim ICAO-Code: UL Flugplatz
Frequenz Turm: 120,975 Mhz GAFOR Gebiet: -
Frequenz Ground: 120,975 Mhz Mogas: nein
Platzrunde: SO 2200 ft Landegebühr: -
Platzhöhe: Sunrise: 05:13 Uhr UTC
Pisten: 04/22 - 400 m x 30 m, GRAS Sunset: 17:33 Uhr UTC

Mitglieder, die in Hundheim fliegen

Flugwetter am Flugplatz Hundheim

Die METAR Information stammen aus EDFH (14.32 km entfernt).

METAR Code:
2019/08/24 16:50
EDFH 241650Z 11006KT 070V150 CAVOK 26/09 Q1020

Flugschulen am Flugplatz Hundheim

Am Flugplatz Hundheim gibt es leider keine Flugschule.

Benachbarte Flugplätze und Flugschulen

Es gibt 17 weitere Flugplätze in einem Umkreis von 50 km um den Flugplatz Hundheim.

Jetzt anmelden

Passwort vergessen

Anzeige: Skymap
Umfrage Archiv

Werdet Ihr Euer UL im Zuge der 600 kg MTOW auflasten lassen?

Ja, bei Kosten bis max. 5.000 Euro
43.3 %
Nein
32.6 %
Ja, bei Kosten bis max. 7.500 Euro
9.2 %
Ja, unabhängig von den Kosten
7.8 %
Ja, bei Kosten bis max. 10.000 Euro
7.1 %
Stimmen: 141 | Diskussion
Anzeige: Roland Aircraft
Statistik Alle Mitglieder

Aktuell sind 33 Besucher online, davon 2 Mitglieder und 31 Gäste.


Mitglieder online:
hennes  Chris_EDNC 

Anzeige: VFR Sprechfunk Simulator


Anzeige: Pocket FMS